Total_Precipitation_Accumulation
0.79 0.70 0.63 0.54 0.51 0.50 0.55 0.72 1.13 1.59 2.07 2.56 2.72 2.81 3.05 3.21 3.13 2.89 2.49 2.26 2.19 2.10 2.00 1.89 1.76 1.70 1.58 1.48 1.35 1.32 1.30 1.34 1.39 1.42 1.44 1.38 1.43 1.45 1.43 1.42 1.29 1.22 1.14 1.06
0.79 0.63 0.68 0.66 0.68 0.70 0.67 0.73 1.05 1.55 2.26 2.55 2.75 2.96 3.04 3.05 3.13 3.08 2.66 2.39 2.25 2.12 2.01 1.96 1.84 1.73 1.62 1.53 1.46 1.41 1.38 1.36 1.31 1.32 1.29 1.26 1.27 1.31 1.26 1.22 1.23 1.19 1.09 0.98
1.18 0.72 0.95 1.33 1.11 0.97 0.98 1.03 1.24 1.67 2.07 2.21 2.38 2.58 2.87 3.11 3.14 3.16 2.85 2.54 2.29 2.17 2.12 2.05 2.01 1.92 1.79 1.62 1.52 1.31 1.23 1.20 1.15 1.13 1.12 1.14 1.11 1.14 1.19 1.25 1.25 1.17 1.06 1.01
1.25 1.38 1.87 1.57 1.05 0.93 1.10 1.22 1.23 1.42 1.53 1.79 1.99 2.22 2.57 2.85 3.17 3.31 3.07 2.78 2.50 2.26 2.17 2.11 2.02 1.87 1.68 1.51 1.34 1.17 1.11 1.09 1.02 0.98 0.99 1.06 1.04 1.05 1.14 1.17 1.17 1.17 1.14 1.17
1.50 1.87 1.94 1.60 1.06 0.94 1.27 1.57 1.24 1.28 1.35 1.42 1.53 1.79 2.34 2.43 2.57 2.83 2.88 2.75 2.56 2.31 2.15 2.05 1.85 1.69 1.55 1.32 1.20 1.13 1.05 1.04 0.94 0.88 0.95 0.98 0.94 0.97 1.06 1.07 1.07 1.09 1.11 1.18
1.54 2.06 2.37 1.92 0.97 0.70 1.10 2.02 1.44 1.31 1.43 1.45 1.63 2.01 2.11 1.92 1.96 2.12 2.31 2.39 2.33 2.12 1.95 1.87 1.67 1.52 1.48 1.34 1.18 1.12 1.04 1.01 0.94 0.94 0.96 0.99 1.00 0.99 0.94 0.97 0.96 0.94 1.00 1.10
1.62 2.03 2.11 1.20 0.77 0.93 1.92 2.30 1.58 1.31 1.46 1.68 1.96 1.94 1.63 1.47 1.59 1.73 1.83 1.97 2.00 1.93 1.88 1.73 1.53 1.48 1.57 1.57 1.36 1.11 1.01 0.97 1.00 1.02 0.98 0.97 1.00 0.98 0.92 0.86 0.90 0.94 0.94 1.01
1.73 2.18 2.21 1.01 0.86 1.46 1.75 1.37 1.24 1.26 1.32 1.37 1.41 1.31 1.21 1.26 1.39 1.42 1.52 1.63 1.75 1.89 1.83 1.76 1.60 1.55 1.57 1.55 1.36 1.16 1.10 1.07 1.02 0.96 0.86 0.86 0.99 0.96 0.90 0.91 0.95 1.01 0.99 0.99
1.73 2.06 1.62 1.02 0.95 0.99 0.99 1.10 1.12 1.21 1.23 1.13 1.12 1.13 1.10 1.17 1.33 1.42 1.44 1.51 1.60 1.69 1.70 1.68 1.56 1.56 1.56 1.48 1.28 1.20 1.21 1.17 1.08 0.97 0.90 0.90 0.99 0.97 0.89 0.91 0.90 0.87 0.85 0.88
1.31 1.38 1.25 1.14 0.99 0.92 0.95 0.98 1.01 1.09 1.13 1.08 1.07 1.01 1.04 1.16 1.28 1.35 1.33 1.36 1.45 1.54 1.56 1.54 1.43 1.40 1.41 1.31 1.27 1.31 1.26 1.18 1.14 1.05 0.95 0.90 0.90 0.86 0.84 0.83 0.85 0.84 0.80 0.77
1.38 1.37 1.30 1.31 1.19 1.08 1.10 1.07 1.03 1.08 1.13 1.09 1.04 1.03 1.05 1.16 1.17 1.19 1.22 1.23 1.30 1.47 1.52 1.42 1.28 1.18 1.15 1.23 1.30 1.36 1.25 1.09 1.01 0.94 0.88 0.90 0.86 0.78 0.76 0.71 0.71 0.76 0.72 0.63
1.42 1.29 1.31 1.31 1.17 1.11 1.26 1.32 1.19 1.15 1.10 1.01 0.98 0.98 0.95 0.97 0.98 1.00 1.05 1.11 1.19 1.24 1.30 1.25 1.16 1.12 1.05 1.12 1.18 1.19 1.11 0.99 0.90 0.82 0.79 0.74 0.74 0.73 0.74 0.69 0.62 0.62 0.63 0.55
1.01 0.93 0.97 1.00 1.01 1.11 1.27 1.26 1.13 1.01 0.94 0.91 0.83 0.87 0.91 0.87 0.87 0.88 0.90 0.92 0.97 0.97 1.04 1.09 1.05 1.06 1.01 1.01 1.06 1.07 1.04 0.97 0.85 0.80 0.79 0.77 0.76 0.76 0.79 0.75 0.67 0.62 0.60 0.55
0.92 0.91 1.07 1.07 1.04 0.99 1.07 1.08 1.00 0.83 0.79 0.85 0.82 0.80 0.86 0.79 0.76 0.79 0.88 0.84 0.80 0.79 0.83 0.84 0.86 0.90 0.94 0.93 0.96 0.96 0.89 0.87 0.84 0.81 0.78 0.79 0.81 0.79 0.76 0.81 0.79 0.68 0.57 0.51
0.94 0.88 0.98 0.95 0.84 0.79 0.81 0.86 0.90 0.82 0.77 0.80 0.78 0.76 0.76 0.78 0.77 0.74 0.79 0.74 0.70 0.75 0.80 0.72 0.71 0.76 0.79 0.77 0.80 0.82 0.82 0.82 0.83 0.83 0.79 0.75 0.79 0.82 0.79 0.79 0.81 0.75 0.64 0.55
0.90 0.75 0.73 0.72 0.71 0.69 0.70 0.72 0.77 0.73 0.67 0.65 0.60 0.61 0.63 0.65 0.70 0.66 0.69 0.70 0.74 0.77 0.80 0.74 0.70 0.67 0.69 0.73 0.73 0.71 0.69 0.73 0.78 0.80 0.81 0.78 0.74 0.78 0.81 0.85 0.87 0.80 0.68 0.60
0.94 0.86 0.79 0.73 0.67 0.63 0.63 0.67 0.66 0.59 0.57 0.54 0.52 0.50 0.53 0.59 0.66 0.65 0.64 0.65 0.71 0.78 0.75 0.69 0.64 0.56 0.57 0.63 0.65 0.63 0.60 0.61 0.61 0.58 0.58 0.58 0.58 0.62 0.66 0.73 0.77 0.71 0.60 0.58
0.84 0.78 0.71 0.68 0.63 0.58 0.55 0.57 0.57 0.51 0.53 0.46 0.42 0.44 0.52 0.63 0.65 0.60 0.57 0.61 0.67 0.74 0.73 0.65 0.57 0.54 0.52 0.55 0.58 0.59 0.53 0.50 0.44 0.42 0.42 0.46 0.50 0.52 0.57 0.60 0.64 0.61 0.54 0.51
0.67 0.57 0.49 0.49 0.53 0.52 0.51 0.51 0.51 0.46 0.44 0.41 0.40 0.45 0.49 0.59 0.57 0.47 0.47 0.55 0.66 0.74 0.71 0.62 0.58 0.55 0.57 0.61 0.59 0.55 0.50 0.47 0.41 0.37 0.38 0.46 0.51 0.53 0.57 0.59 0.61 0.59 0.52 0.49
0.57 0.46 0.40 0.41 0.44 0.46 0.48 0.46 0.47 0.47 0.43 0.40 0.42 0.44 0.46 0.53 0.53 0.46 0.48 0.55 0.58 0.62 0.63 0.62 0.53 0.51 0.56 0.59 0.56 0.50 0.48 0.47 0.47 0.43 0.45 0.51 0.53 0.50 0.50 0.53 0.55 0.57 0.51 0.47
0.51 0.41 0.40 0.42 0.44 0.46 0.47 0.46 0.44 0.43 0.46 0.46 0.52 0.53 0.48 0.50 0.54 0.53 0.56 0.57 0.52 0.51 0.55 0.58 0.55 0.56 0.55 0.55 0.48 0.42 0.42 0.44 0.46 0.46 0.48 0.50 0.51 0.50 0.51 0.52 0.57 0.61 0.57 0.51
0.48 0.44 0.41 0.38 0.41 0.47 0.46 0.47 0.46 0.43 0.45 0.47 0.49 0.50 0.49 0.53 0.54 0.54 0.56 0.61 0.54 0.51 0.50 0.53 0.56 0.57 0.55 0.55 0.47 0.42 0.41 0.45 0.47 0.50 0.55 0.55 0.54 0.56 0.57 0.57 0.58 0.56 0.55 0.56
0.48 0.47 0.48 0.48 0.47 0.48 0.46 0.49 0.50 0.46 0.46 0.47 0.46 0.49 0.49 0.51 0.53 0.54 0.59 0.54 0.47 0.49 0.49 0.49 0.52 0.52 0.50 0.53 0.52 0.48 0.45 0.46 0.51 0.57 0.60 0.58 0.56 0.59 0.59 0.56 0.55 0.53 0.53 0.53
0.50 0.51 0.52 0.51 0.51 0.51 0.55 0.57 0.55 0.51 0.47 0.45 0.45 0.48 0.48 0.49 0.50 0.45 0.48 0.47 0.46 0.49 0.46 0.43 0.40 0.36 0.36 0.39 0.46 0.50 0.53 0.52 0.50 0.54 0.58 0.61 0.60 0.55 0.56 0.57 0.57 0.55 0.55 0.51
0.54 0.54 0.56 0.57 0.62 0.65 0.64 0.60 0.53 0.48 0.45 0.44 0.40 0.42 0.45 0.46 0.46 0.43 0.42 0.42 0.40 0.39 0.34 0.33 0.31 0.31 0.30 0.31 0.35 0.42 0.51 0.54 0.51 0.49 0.52 0.59 0.60 0.54 0.54 0.59 0.62 0.59 0.53 0.51
0.67 0.62 0.60 0.61 0.63 0.66 0.63 0.58 0.52 0.50 0.49 0.51 0.52 0.48 0.47 0.47 0.44 0.42 0.40 0.39 0.37 0.33 0.29 0.30 0.33 0.34 0.31 0.31 0.34 0.39 0.45 0.48 0.47 0.48 0.53 0.56 0.58 0.60 0.58 0.59 0.64 0.62 0.55 0.51
0.77 0.75 0.73 0.67 0.63 0.63 0.64 0.65 0.62 0.57 0.53 0.50 0.51 0.49 0.49 0.49 0.48 0.45 0.42 0.40 0.39 0.35 0.33 0.33 0.33 0.32 0.30 0.31 0.34 0.39 0.43 0.44 0.45 0.51 0.55 0.56 0.60 0.64 0.68 0.66 0.68 0.69 0.64 0.55